Location: Hylvaty SDH
(49.9612°N, 16.4057°E)
Time: 07:32:47
(UTC+02:00)

Transit 2A Rocket - Pass Details

Date: 15 July 2020
Orbit: 584 x 919 km, 66.7° (Epoch: 13 August)

Event Time Altitude Azimuth Distance (km) Brightness Sun altitude
Rises 21:23:51 0° 319° (NW) 3,568 10.9 -4.1°
Reaches altitude 10° 21:26:33 10° 312° (NW) 2,620 9.8 -4.5°
Maximum altitude 21:32:09 39° 247° (WSW) 1,336 6.5 -5.1°
Drops below altitude 10° 21:37:32 10° 180° (S) 2,508 7.3 -5.8°
Sets 21:40:05 0° 173° (S) 3,399 7.9 -6.1°
